RH
71 67 62 59 57 52 45 39 35 33 32 31 31 32 38 45 48 46 43 43 47 51 54 54 55 54 54 53 52 51 50 49 47 44 42 39 37 37 36 36 35 34 32 31 30 29 27 26 25 24 23 23 22 22 21 21 21 20 20 21 21 22 22 22 22 20 20 19 18 17 16 15 16 17 18 19 18 15 14 14 13 13 13 12 11 11 11 10
75 70 65 59 52 44 37 34 33 35 38 42 44 47 51 55 58 61 61 62 69 74 71 66 62 59 56 55 54 53 52 51 50 48 44 41 38 37 36 34 33 32 31 30 29 28 27 26 25 24 23 22 21 21 20 20 19 20 20 20 21 22 23 23 22 21 20 19 17 16 17 18 18 18 19 21 20 17 16 16 16 16 15 14 13 13 12 12
73 66 58 50 42 36 33 33 38 47 55 60 62 62 61 62 65 72 77 79 84 88 80 70 65 63 60 58 57 55 54 54 55 52 46 43 41 38 36 34 32 31 30 29 28 28 27 26 25 25 23 22 21 20 19 19 18 18 18 18 19 20 21 21 21 21 20 19 17 16 17 18 19 20 20 20 20 19 19 19 19 18 17 16 15 15 15 14
61 53 45 40 37 35 36 42 55 68 75 80 79 74 72 73 75 77 83 84 85 88 86 80 75 73 70 67 64 60 58 58 59 55 49 46 44 40 37 35 33 31 30 29 28 27 26 26 25 24 24 23 22 21 19 18 18 17 17 17 17 17 18 19 19 19 19 18 17 17 18 19 20 22 21 20 20 20 20 20 19 19 18 17 17 17 16 17
48 43 40 38 38 43 51 63 78 85 88 92 88 81 79 82 83 84 87 88 86 84 83 81 77 74 71 67 63 60 58 58 58 54 49 47 44 40 38 35 33 31 29 28 27 26 25 25 24 24 24 23 22 21 20 19 18 17 16 16 16 16 16 16 16 17 17 17 18 18 19 20 22 23 22 20 20 20 20 20 19 19 18 18 17 17 16 17
40 39 39 40 47 62 74 83 92 94 94 93 86 80 80 80 81 83 87 91 91 88 83 79 74 70 66 62 59 56 54 52 50 47 45 42 39 37 34 32 30 29 27 26 25 24 24 23 22 22 22 22 22 21 20 19 18 17 17 16 16 16 15 15 15 15 15 15 17 18 19 21 21 20 20 20 20 20 19 19 19 18 18 18 16 16 16 15
39 41 44 51 67 86 93 93 94 96 95 88 79 76 76 74 71 72 76 80 84 84 83 79 74 69 65 61 56 52 49 46 43 41 38 35 33 31 29 27 26 25 24 23 23 22 21 21 20 20 20 20 20 20 19 18 17 17 16 16 16 15 15 15 14 14 14 14 15 16 18 19 19 19 20 20 19 19 19 19 20 19 17 17 16 16 15 15
48 55 65 77 92 102 102 98 94 92 90 83 76 73 69 65 63 62 63 65 67 68 68 67 64 61 57 53 49 45 41 39 37 35 32 30 28 27 26 25 23 23 23 22 22 21 20 20 19 19 19 19 19 19 18 17 16 16 16 16 16 15 15 14 14 14 14 14 15 16 16 16 17 20 20 19 19 19 19 20 19 19 17 16 17 16 16 16
72 82 93 102 108 109 107 102 96 91 86 80 74 68 63 59 57 57 56 56 56 56 55 54 52 50 47 44 41 38 36 34 32 31 29 28 26 25 25 24 23 22 22 22 21 21 20 20 20 19 19 19 18 18 17 17 16 15 16 15 15 15 14 14 14 14 14 14 15 17 15 15 17 18 18 18 20 21 19 20 20 18 18 17 17 17 17 17
98 103 107 110 110 108 106 102 98 93 87 81 75 69 65 62 61 59 57 56 54 53 51 49 47 45 43 40 38 35 33 32 30 29 28 27 26 25 24 23 22 22 21 21 20 20 20 19 19 18 18 17 17 17 16 15 15 15 15 14 14 14 14 14 14 14 14 14 16 17 16 15 16 16 16 17 19 20 20 20 20 19 19 18 18 18 17 16
105 106 106 107 104 102 100 99 97 95 90 85 80 77 73 70 67 64 61 58 55 53 50 48 46 44 42 39 36 34 32 31 30 28 26 25 25 23 23 22 21 20 20 19 18 18 18 17 17 16 16 16 15 15 14 14 14 14 14 14 14 13 14 13 14 15 15 15 16 17 16 15 16 16 16 16 17 18 18 19 19 19 19 19 19 18 17 17
99 100 100 99 98 96 94 93 90 88 85 82 80 78 75 71 67 63 60 57 55 52 50 47 45 42 39 37 34 32 30 29 27 26 24 23 22 21 21 20 19 18 18 17 17 16 16 15 15 15 15 14 14 14 14 14 14 14 15 15 14 14 15 15 16 16 16 17 17 17 17 16 16 16 16 16 17 16 17 17 18 18 18 19 18 17 17 17
90 90 89 88 87 85 83 81 79 77 75 73 72 71 69 67 64 60 57 54 52 50 48 45 43 40 37 34 32 30 28 27 25 24 23 22 20 20 19 18 18 17 17 16 16 16 16 16 15 16 16 15 15 16 16 16 15 17 18 17 16 17 18 17 18 18 19 20 18 18 19 18 18 18 18 17 17 16 16 17 17 18 19 19 17 17 17 17
77 75 74 73 71 70 70 69 68 66 65 64 63 62 61 60 58 55 52 50 48 46 44 42 40 37 35 33 30 29 27 25 24 23 21 20 20 19 18 18 17 17 17 17 17 17 17 17 17 18 18 18 18 18 18 18 17 19 19 18 18 19 20 20 20 20 21 22 21 20 21 22 21 20 20 20 19 17 16 18 18 18 19 19 19 19 18 18
61 59 58 56 55 55 56 56 56 56 56 56 55 56 55 55 53 51 49 48 46 44 42 40 38 36 33 31 30 28 26 24 23 22 20 20 19 18 18 18 18 18 18 19 19 20 20 20 20 21 20 19 20 20 19 18 19 20 19 18 19 19 20 20 21 20 21 23 22 22 24 26 25 23 24 23 21 17 18 21 19 18 19 20 22 22 20 19
46 45 43 42 42 42 42 43 43 44 45 45 46 46 48 48 48 48 46 45 44 42 41 39 37 35 33 31 29 27 25 23 22 21 20 20 19 19 20 20 20 21 20 21 22 22 22 21 21 21 20 19 19 19 18 18 19 19 18 18 18 19 19 19 20 20 21 23 23 23 25 27 27 26 26 24 22 20 21 22 20 20 20 21 24 25 22 20
40 41 41 41 41 39 38 36 35 35 35 36 37 37 39 40 42 42 42 41 39 39 39 37 36 34 32 30 29 26 25 23 22 22 20 20 20 21 22 23 23 24 25 24 24 24 23 21 21 20 19 19 19 18 18 18 19 19 19 18 18 18 18 19 19 19 20 21 22 23 24 27 29 28 26 26 25 23 24 24 23 22 22 23 25 26 24 23
46 46 45 44 44 41 38 34 32 31 30 31 31 31 32 33 35 37 37 36 35 35 35 35 35 33 31 30 28 26 24 24 23 21 21 22 24 25 27 27 27 27 28 27 25 23 22 21 19 19 19 19 19 18 19 20 20 19 19 18 17 18 18 18 19 19 19 20 21 21 23 27 29 28 26 28 27 23 27 31 26 24 26 26 26 29 29 25
52 50 48 45 44 41 36 32 29 28 27 27 28 28 28 29 31 32 34 34 33 32 32 34 34 32 31 30 28 26 24 25 24 23 26 28 27 29 31 31 30 30 29 27 25 22 21 21 20 19 20 19 19 19 20 21 20 19 18 17 17 18 18 19 20 19 18 20 21 20 23 27 28 27 27 29 27 24 32 38 30 26 31 30 29 32 30 26
54 51 48 45 43 39 33 29 27 27 28 28 28 28 28 28 29 31 32 32 31 31 31 33 33 32 31 30 28 27 24 25 25 26 31 33 31 33 34 32 31 30 29 26 23 22 21 21 21 21 20 20 20 19 20 20 20 19 18 19 19 19 20 20 21 21 18 20 22 20 22 26 27 25 27 29 29 29 33 36 32 30 38 39 34 33 31 27
51 50 48 46 41 35 31 30 30 30 31 31 31 31 30 30 31 32 33 32 31 31 32 32 33 33 32 31 30 27 26 27 28 31 37 38 36 35 34 33 32 30 27 25 23 22 22 23 22 21 20 20 20 20 20 20 20 19 20 20 21 22 22 23 23 22 20 20 22 22 22 25 26 26 28 30 31 34 34 34 35 37 46 49 40 36 34 31
52 51 47 42 37 35 34 33 32 33 33 34 34 34 33 33 34 33 35 36 32 31 33 33 34 35 33 32 31 28 28 29 30 36 42 42 38 35 35 33 32 30 27 26 25 24 23 23 22 21 20 20 20 20 21 20 20 20 21 22 22 23 23 24 24 22 21 20 22 23 22 23 27 27 29 31 30 34 37 36 39 44 51 52 43 38 37 37
55 49 43 38 37 37 37 35 34 33 33 34 35 35 36 37 37 36 37 41 37 33 34 34 34 37 35 32 32 31 29 31 36 42 46 44 38 35 35 34 32 31 28 27 26 25 24 22 21 21 20 20 21 21 21 21 21 22 22 22 22 23 22 23 23 22 20 19 20 22 22 25 28 28 28 29 30 37 40 40 43 47 50 50 44 39 42 46
51 44 41 41 39 38 36 35 35 34 35 36 37 38 39 39 40 40 40 43 43 36 35 38 38 37 36 33 33 33 30 36 45 46 46 44 38 37 38 35 34 32 30 28 27 25 24 22 22 21 21 21 21 21 22 21 22 22 22 22 22 22 23 23 22 21 19 19 20 20 22 27 28 26 25 27 33 39 41 42 44 44 43 44 42 42 48 51
46 43 43 42 40 39 38 37 36 37 39 40 42 43 42 41 41 42 41 44 48 41 36 43 43 38 37 36 37 35 33 42 50 47 47 45 39 38 38 35 35 34 31 29 27 26 24 23 23 22 22 21 21 22 22 21 22 22 22 22 23 22 23 23 22 22 20 19 21 22 22 25 27 26 25 29 34 35 39 42 40 39 40 39 41 46 50 50
45 45 43 41 41 41 43 43 39 40 44 46 47 46 45 44 43 44 43 45 52 47 40 46 47 39 37 39 40 39 40 45 47 48 51 46 38 38 38 38 39 35 32 30 28 26 25 24 23 22 22 21 22 22 21 21 21 22 22 22 23 22 22 23 22 22 21 21 22 23 22 22 25 26 26 30 31 30 38 44 38 35 37 37 41 45 46 46
47 46 43 42 43 44 46 48 45 45 51 53 50 47 48 48 45 45 44 47 55 54 48 52 51 41 38 42 45 46 47 48 49 51 52 45 38 41 44 43 40 35 32 31 28 27 25 24 23 22 22 22 22 21 20 21 21 22 23 23 23 22 22 23 22 22 22 23 23 23 22 22 24 26 27 29 29 29 36 40 36 32 33 35 39 40 40 42
49 47 45 44 45 46 48 52 52 50 55 58 51 47 50 49 46 46 46 49 57 61 58 55 51 43 41 45 49 50 50 52 52 51 50 45 41 45 48 44 38 34 33 32 30 28 25 24 23 22 22 22 21 21 21 21 22 23 22 23 23 23 24 23 22 23 23 24 25 24 22 22 25 27 27 27 28 28 32 36 34 30 31 33 35 35 36 36
52 50 48 46 46 47 48 53 55 51 53 55 49 47 49 49 48 47 48 53 61 64 60 55 53 49 46 48 50 50 50 53 52 49 49 46 43 47 47 42 39 37 36 35 31 29 26 24 23 22 22 22 20 21 21 21 22 22 22 24 25 25 27 26 25 25 26 26 25 24 24 24 26 27 27 28 28 28 30 32 30 29 31 31 32 33 31 30
54 55 53 49 48 49 49 51 52 50 49 49 47 48 48 50 49 48 51 59 63 61 57 59 59 53 48 47 45 45 48 52 50 47 49 45 44 49 47 43 41 40 39 36 32 30 27 25 24 23 22 21 21 21 21 22 22 22 25 26 27 28 28 27 27 27 28 28 26 26 27 26 27 27 26 27 27 27 27 27 28 32 34 31 29 31 28 25
58 61 61 56 52 51 51 51 50 50 49 48 47 48 49 51 50 51 57 62 63 60 57 61 61 53 48 48 45 43 47 52 49 47 49 45 45 50 49 47 44 41 42 39 33 31 28 25 24 23 22 21 21 21 21 22 22 24 27 27 28 29 29 28 27 27 27 28 28 29 29 28 28 28 26 27 27 26 26 26 27 31 32 30 29 27 25 23
63 67 69 65 58 54 53 53 52 53 53 51 50 49 50 51 51 56 64 65 63 61 58 61 62 57 51 48 46 44 46 51 49 48 49 47 48 54 54 52 47 44 46 42 36 33 30 27 25 22 21 21 22 22 23 23 24 26 27 29 30 29 29 29 28 29 29 30 31 30 28 29 29 27 26 26 26 26 28 27 26 29 29 28 29 27 23 24
68 71 74 72 67 61 58 56 55 56 56 56 55 53 51 52 57 64 68 67 64 60 60 64 64 58 52 48 47 44 46 52 51 48 49 49 53 59 59 55 52 50 48 45 39 35 33 30 27 26 24 25 26 26 25 24 24 26 28 29 29 28 30 30 29 30 31 33 33 31 29 29 28 29 27 27 29 28 29 31 30 31 32 32 30 27 25 27
72 75 77 78 76 72 67 61 58 57 57 58 59 57 56 59 65 67 66 68 66 60 60 62 60 56 51 48 45 43 45 51 52 49 49 50 55 62 62 58 56 53 48 46 43 37 35 32 30 30 29 29 30 27 26 26 25 27 28 27 28 29 30 30 31 31 31 32 32 30 29 29 29 28 27 28 29 28 30 33 32 31 34 37 33 31 41 44
72 74 77 81 83 82 75 67 61 58 57 58 58 60 63 66 67 64 65 68 65 61 60 59 56 54 51 47 46 47 48 52 56 53 49 51 59 66 66 60 58 54 50 51 47 40 37 34 30 29 30 32 32 28 26 26 27 28 28 29 29 30 31 31 31 30 30 32 31 31 31 33 37 41 48 46 32 29 34 33 31 32 34 41 49 59 75 74
67 67 69 74 78 81 81 75 66 60 57 55 56 60 63 65 64 62 64 66 65 62 60 56 53 50 47 45 45 48 49 51 56 53 49 53 63 69 68 64 62 58 54 55 53 44 38 35 32 28 31 36 33 29 29 28 29 30 30 31 32 33 34 33 32 31 31 31 32 33 32 36 42 51 67 64 39 30 33 34 40 45 48 64 82 88 86 80
63 61 61 63 65 68 74 76 73 67 61 56 58 60 60 61 61 60 61 63 63 61 57 54 50 47 46 44 47 52 51 52 57 54 50 58 70 76 75 69 65 60 54 56 54 47 41 37 34 30 34 40 37 31 32 31 31 32 31 32 34 35 34 34 33 30 30 35 37 36 35 40 38 39 52 50 38 34 33 48 71 71 70 87 93 82 66 58
60 59 59 59 60 58 60 64 66 68 68 67 68 64 58 57 57 57 58 58 59 57 54 52 47 45 46 48 54 58 53 51 58 58 54 60 72 81 81 73 67 62 57 57 56 52 45 38 37 36 37 44 43 37 37 36 35 36 36 35 36 38 39 41 39 33 34 42 46 44 45 46 40 42 53 46 39 45 40 51 75 72 73 86 82 71 61 46
60 61 61 61 62 60 58 57 56 58 61 66 71 70 66 63 62 60 57 56 57 55 53 51 47 46 51 58 62 62 56 52 57 59 54 59 75 90 90 79 72 73 67 60 57 57 53 44 39 37 40 47 48 44 45 46 43 42 41 43 46 48 54 57 56 57 59 55 53 53 50 49 48 49 57 52 44 48 42 37 47 50 65 88 88 77 68 54
61 63 64 62 63 62 59 58 55 54 53 55 59 63 66 68 70 68 62 58 55 52 50 49 46 48 55 61 56 50 50 49 51 56 53 61 82 99 100 88 80 81 75 68 69 66 59 50 41 39 44 48 48 53 58 54 50 47 46 51 55 59 72 80 81 84 80 68 66 67 53 44 46 44 47 51 45 45 43 37 35 35 50 85 101 93 83 75
63 64 63 61 61 60 58 57 55 54 54 53 52 53 55 58 64 69 70 68 65 63 58 48 45 51 59 65 63 59 60 55 50 52 52 65 87 99 102 94 86 86 82 80 82 73 63 55 45 43 48 48 52 68 73 61 53 47 46 54 58 61 73 82 86 93 92 84 84 87 70 43 38 54 71 78 75 67 58 50 48 49 60 91 109 104 100 98
64 63 61 59 58 57 56 56 55 55 55 54 54 53 53 53 56 60 63 66 69 67 56 42 44 54 59 67 75 78 78 70 60 60 65 76 86 93 97 90 83 87 89 85 74 64 70 76 63 52 52 53 60 73 75 68 66 57 46 49 56 60 64 65 73 90 101 100 95 96 86 49 32 60 86 95 100 87 60 47 51 61 79 99 100 92 96 101
61 60 59 58 58 58 58 57 56 56 55 55 55 55 56 56 56 57 56 57 57 52 45 44 56 70 74 78 81 74 67 64 64 76 92 96 90 92 97 92 91 95 91 81 65 58 81 103 95 75 60 57 66 77 82 84 92 90 75 64 55 47 48 51 58 72 84 91 90 89 82 54 42 63 68 62 74 75 52 41 41 42 58 80 84 84 96 102
60 61 60 58 56 54 53 50 48 47 47 48 49 50 53 53 55 58 56 54 50 43 44 50 60 73 80 82 81 74 68 68 67 72 85 94 99 108 108 102 106 103 88 81 69 59 76 102 109 96 76 65 66 74 88 94 97 101 96 89 77 60 56 55 49 53 70 83 84 76 64 47 41 59 62 45 50 67 62 52 46 35 42 74 95 97 103 105
61 60 56 51 48 44 42 40 38 37 35 36 38 39 41 43 46 52 53 53 51 49 52 55 56 62 64 61 60 59 61 67 68 63 64 70 84 101 106 108 114 108 96 94 81 66 77 96 105 105 99 91 78 73 88 98 98 103 101 99 99 93 90 83 62 55 72 88 91 79 64 48 33 50 82 78 61 65 64 54 52 45 48 81 104 103 102 100
55 51 45 42 39 36 35 33 32 31 30 30 30 30 31 32 35 40 43 46 48 50 55 56 56 59 57 54 54 54 57 64 64 61 60 64 73 85 93 102 109 108 106 106 94 85 93 99 98 102 106 106 95 85 92 96 96 107 109 106 108 105 102 98 82 71 70 76 86 84 70 56 38 42 75 80 56 47 48 47 52 58 69 90 100 100 102 97
46 42 38 37 35 33 33 32 31 30 29 29 29 27 27 28 30 32 34 35 37 41 47 51 55 58 56 52 50 53 62 70 67 58 53 57 67 76 84 89 94 100 105 106 103 102 105 104 101 104 106 107 105 102 102 97 93 98 101 101 106 108 105 101 94 90 85 79 82 82 73 69 62 49 46 47 42 38 39 42 51 70 92 101 96 97 102 97
42 39 37 35 33 31 31 30 29 28 28 28 29 28 28 28 29 31 31 30 29 30 35 40 47 53 55 53 50 51 58 64 65 59 54 60 67 70 75 80 86 98 103 102 103 105 106 106 102 99 100 104 109 109 105 101 96 95 95 96 99 102 104 102 95 95 99 97 89 80 75 81 86 72 50 41 42 38 39 52 67 85 104 105 98 100 101 100
40 38 36 35 33 31 29 29 28 28 27 27 27 27 28 28 29 31 30 28 27 27 29 32 35 41 44 46 51 57 61 61 60 54 52 65 79 82 81 80 88 104 107 102 102 103 104 103 94 90 96 102 106 104 101 103 103 100 100 101 100 100 100 97 92 92 100 105 96 83 80 81 83 83 71 57 48 39 39 55 68 81 97 102 101 102 100 101
39 37 36 35 34 31 29 28 27 27 27 28 28 27 27 28 28 29 29 27 27 29 30 29 30 33 36 39 47 58 65 71 74 69 60 63 72 81 85 84 93 107 107 102 101 101 102 100 91 93 103 104 102 101 103 107 107 103 102 102 98 99 100 97 93 95 100 102 95 86 85 79 70 71 70 62 54 46 43 45 48 62 87 98 100 103 101 101
39 38 36 35 34 33 31 29 28 28 28 28 28 27 27 27 27 28 28 27 28 31 31 30 29 30 32 36 41 49 59 71 81 85 82 78 76 81 87 88 96 106 105 103 103 101 103 103 98 103 111 107 103 106 109 108 106 102 104 104 99 98 104 102 98 99 98 92 88 90 93 90 81 77 75 69 61 52 51 54 53 64 89 101 99 99 99 101
40 39 38 37 36 36 34 32 30 29 29 28 27 26 26 27 27 27 27 28 30 32 31 31 31 31 33 36 37 41 49 62 72 77 79 83 88 93 97 96 99 105 104 104 106 104 102 98 91 97 108 107 103 105 109 109 108 107 107 108 104 102 107 107 105 107 101 88 90 100 102 99 98 97 95 94 88 71 62 64 65 69 88 100 101 99 95 95
Wind_Speed
69 69 69 69 70 70 70 71 71 71 71 71 71 69 67 65 65 65 65 65 65 65 65 66 66 66 66 66 66 66 65 65 66 67 67 67 67 67 67 67 67 68 68 68 69 69 70 70 71 70 70 71 71 72 73 74 74 74 73 74 75 78 82 86 89 90 92 93 91 85 82 81 81 81 83 86 91 90 85 84 84 83 84 84 82 82 82 81
69 69 70 70 70 71 71 71 71 70 70 70 68 67 65 63 62 62 62 62 63 63 63 63 64 64 65 65 65 65 65 65 66 67 68 67 68 68 68 68 68 69 69 69 70 70 71 71 71 70 71 71 71 72 72 73 72 71 71 71 73 77 82 86 87 89 89 89 88 82 79 81 82 82 83 86 90 88 84 84 83 83 84 83 81 81 81 80
70 70 71 71 72 72 71 71 70 69 68 67 66 65 63 62 61 61 61 61 61 62 62 62 63 63 64 65 65 65 65 66 67 69 69 68 68 69 69 69 70 70 70 71 71 72 72 72 72 72 72 72 72 73 73 73 72 71 70 70 73 78 82 84 85 86 86 85 84 79 78 80 81 83 84 85 88 86 82 82 82 83 83 82 81 80 80 78
71 72 72 72 72 71 71 70 69 68 67 66 65 64 62 61 61 61 61 61 61 61 62 63 63 64 64 65 66 66 66 66 68 70 69 68 69 70 70 71 71 72 72 73 73 74 74 74 73 73 73 73 74 74 73 73 73 72 70 71 75 79 82 83 84 84 82 80 79 77 77 78 79 83 83 82 85 84 81 81 82 82 81 81 80 79 78 76
72 72 72 72 71 70 69 68 68 67 67 66 65 64 62 61 60 60 60 61 61 61 62 63 64 64 65 66 66 67 66 67 69 71 70 70 71 71 72 72 73 74 74 75 75 76 76 75 75 75 75 75 75 75 75 75 74 73 72 73 77 80 82 83 82 81 78 76 76 76 76 76 79 82 82 81 82 82 79 79 80 80 80 79 78 77 76 74
72 72 72 71 70 69 68 68 68 67 67 66 66 65 63 62 61 61 60 61 61 62 62 63 64 65 65 66 67 67 67 67 70 72 71 71 71 72 73 73 74 75 75 76 76 77 77 77 77 76 76 76 76 76 76 76 75 73 73 75 78 80 82 81 80 79 76 74 74 75 77 79 81 80 80 80 80 80 77 76 78 79 78 77 76 74 73 72
71 71 70 69 69 68 68 68 68 68 67 67 66 65 64 63 63 62 62 62 62 63 63 64 65 65 66 67 67 67 67 68 70 72 72 71 71 72 73 73 73 74 75 75 76 76 77 77 77 77 77 77 77 77 77 77 75 74 74 76 79 81 81 81 79 78 75 74 74 76 80 81 78 77 80 80 78 77 76 75 77 78 77 74 73 72 70 70
68 68 67 67 67 67 67 67 67 67 67 66 65 65 64 64 63 63 63 63 63 64 64 65 66 66 67 67 67 67 67 68 69 70 70 70 70 70 70 71 71 71 72 72 73 74 74 75 75 76 76 77 77 77 77 76 74 73 75 77 79 80 80 79 78 77 76 74 74 78 81 78 75 78 81 78 75 76 75 74 76 77 74 71 70 70 69 68
64 64 65 65 65 66 66 67 67 66 66 66 65 64 64 64 63 63 63 63 64 64 65 65 66 66 66 66 66 66 66 67 67 67 67 67 67 67 67 67 68 68 68 69 70 70 71 72 73 73 73 74 75 75 75 75 73 73 75 77 78 79 79 78 77 77 75 72 74 79 80 76 77 79 79 75 73 76 76 74 75 74 72 70 70 69 69 68
62 62 62 63 63 64 65 65 65 65 65 64 64 63 63 63 62 62 62 62 62 63 63 64 64 64 64 64 64 63 63 63 63 64 64 63 64 64 64 64 65 65 66 66 67 67 68 69 70 70 70 72 72 72 73 72 72 73 74 76 77 77 77 77 76 75 74 71 74 79 79 77 78 78 76 74 74 76 76 74 74 72 71 70 70 69 69 68
60 61 61 62 62 62 63 63 63 63 63 63 63 62 62 62 61 61 61 61 61 61 62 62 62 61 61 62 62 61 60 60 61 62 62 61 62 62 62 63 63 63 64 65 65 66 67 67 68 68 68 69 70 70 71 71 72 72 73 75 75 75 75 74 72 73 73 71 73 77 78 76 77 77 75 74 74 75 74 72 72 71 70 69 69 69 68 67
60 60 61 61 61 62 62 62 62 62 62 62 62 62 62 61 61 60 60 59 60 60 60 60 60 59 59 60 60 59 59 59 60 61 61 61 61 61 61 62 62 62 63 63 63 64 65 65 66 66 66 67 68 68 68 68 69 69 70 72 72 71 70 70 70 71 71 70 72 75 75 74 74 74 73 73 74 73 71 70 70 69 67 68 68 68 67 66
60 60 61 61 61 61 62 62 62 62 62 62 62 62 62 61 60 60 59 59 59 59 59 58 58 58 58 60 59 58 59 59 59 59 60 60 59 60 61 60 61 61 61 61 61 62 62 63 63 63 64 64 64 64 64 65 65 65 67 67 66 66 66 67 68 67 67 68 70 70 70 70 71 71 72 72 72 71 68 68 67 65 64 65 67 66 65 65
59 60 60 61 61 62 62 62 63 63 63 63 62 62 62 61 60 59 59 58 58 58 58 58 57 57 58 59 58 58 58 58 58 58 59 59 58 58 58 58 58 58 58 58 58 59 59 60 59 60 60 60 60 61 61 62 61 61 63 62 62 62 62 64 65 64 64 65 67 66 65 67 68 68 68 68 70 69 65 66 66 62 62 63 63 63 63 63
59 59 60 61 61 62 63 63 64 64 64 64 63 63 62 61 60 59 58 58 58 58 57 57 57 56 57 58 58 58 57 56 57 57 57 57 56 55 55 55 55 55 55 55 55 55 56 56 55 56 57 56 57 58 58 57 58 59 60 59 60 60 61 62 63 62 61 63 65 62 61 63 65 65 65 66 67 65 62 64 64 59 59 60 60 60 61 60
59 59 59 60 61 62 62 63 64 64 65 65 64 64 63 62 61 59 58 57 57 57 57 56 56 56 56 57 57 56 56 55 55 55 55 54 53 52 52 52 52 52 52 52 52 52 53 53 52 54 53 53 54 56 55 55 56 58 58 58 59 59 60 62 62 61 61 62 62 60 59 61 63 62 63 64 63 60 59 61 60 56 56 57 58 58 59 59
58 58 58 59 60 61 62 63 63 64 65 65 65 65 64 63 61 60 58 57 57 57 56 55 55 55 54 56 56 54 54 53 53 53 52 51 49 49 49 49 49 49 49 49 49 50 51 51 51 52 51 51 53 53 52 53 55 58 58 59 59 59 60 61 61 61 61 62 60 59 58 58 61 62 61 60 59 57 56 59 56 53 54 55 56 56 57 57
58 58 58 59 60 61 62 63 64 65 65 66 66 66 65 64 62 60 58 58 58 57 55 54 54 54 53 54 54 52 51 51 52 50 48 47 46 45 46 46 46 46 47 47 48 49 49 50 49 50 50 50 52 51 51 53 56 58 59 59 58 58 59 59 61 61 60 60 60 58 56 57 62 61 58 57 58 54 52 56 54 50 52 53 53 53 54 55
59 59 60 60 61 62 63 63 64 65 65 66 66 66 65 64 63 61 59 59 58 56 54 53 54 52 52 53 52 51 49 49 50 47 45 45 43 43 43 44 45 45 46 47 47 47 47 48 48 48 49 50 51 50 51 54 57 57 56 56 55 55 56 57 60 61 59 58 59 56 53 58 63 59 57 56 55 51 50 54 52 48 49 50 50 51 53 53
61 61 61 61 62 62 63 63 63 64 64 65 66 66 65 64 63 61 60 60 59 56 54 53 53 51 50 51 50 50 48 48 47 44 43 43 41 41 42 43 43 44 45 46 46 45 45 46 46 48 49 49 49 49 50 53 54 53 52 52 52 52 53 55 59 61 58 55 58 56 53 58 62 57 55 55 53 51 51 53 50 46 47 48 49 50 51 51
61 61 61 61 62 62 62 62 62 62 63 63 64 65 64 63 62 61 60 60 59 55 54 52 51 51 49 49 50 48 46 46 45 42 42 42 40 40 41 42 42 43 44 44 44 43 43 45 46 48 48 47 47 47 49 51 51 50 49 50 50 51 52 55 59 60 57 54 56 57 54 56 60 57 55 55 52 50 50 50 47 45 45 47 47 49 49 47
59 60 60 60 61 61 61 62 61 61 61 62 63 63 63 62 61 60 58 60 59 55 53 52 50 49 49 48 49 46 45 45 43 41 41 41 40 39 40 41 41 42 41 41 42 42 43 45 46 46 45 44 45 45 47 48 47 47 47 49 51 52 53 55 58 59 57 55 55 55 53 54 58 57 55 54 50 49 49 48 46 44 44 46 46 47 47 43
57 58 59 60 60 60 61 61 61 60 59 60 60 61 61 61 60 59 57 58 59 55 51 51 48 47 48 48 46 45 44 44 42 40 41 41 39 38 39 40 39 39 39 39 40 41 43 44 43 42 42 42 42 43 44 44 44 45 47 49 51 52 53 55 57 59 58 54 52 52 52 54 57 57 55 52 48 47 48 47 46 45 44 44 44 44 43 41
57 58 59 60 60 60 60 59 59 58 57 57 57 58 59 60 59 58 56 55 58 55 49 49 49 47 48 46 45 45 43 42 42 40 40 40 38 38 39 38 37 38 38 38 38 39 41 40 39 39 40 40 40 40 42 43 43 45 46 48 49 50 52 54 56 58 56 51 49 50 52 55 57 56 53 50 48 48 48 49 48 46 44 42 40 40 41 42
57 57 58 58 58 58 58 58 56 55 55 54 55 56 57 58 57 56 55 52 55 55 48 47 49 48 46 44 45 44 42 41 41 39 40 39 37 38 38 36 36 37 37 36 36 38 38 37 37 38 38 37 38 40 42 42 42 43 44 46 47 49 50 51 53 54 53 47 47 50 52 55 55 53 50 49 50 49 48 50 49 46 42 39 37 38 41 44
56 56 56 56 55 55 55 55 54 52 52 52 53 54 55 56 56 54 53 50 52 54 48 46 50 49 44 43 44 43 41 41 39 37 40 39 36 37 36 35 35 35 34 34 33 35 35 34 35 36 35 36 38 41 41 40 41 42 43 45 47 48 48 50 51 50 49 46 46 49 51 53 53 51 49 49 51 48 47 50 50 45 40 37 36 38 42 44
55 54 53 52 51 51 50 52 51 48 48 50 52 53 52 54 54 52 51 49 50 52 49 47 50 49 43 42 44 43 40 40 38 37 40 38 35 35 35 34 35 33 32 32 32 33 33 32 33 34 34 37 39 40 39 39 40 41 43 45 47 47 47 48 48 47 47 44 45 47 49 50 49 49 49 49 49 47 47 51 50 44 39 37 38 40 42 43
53 52 50 48 46 47 47 48 48 46 45 49 51 50 50 52 52 50 49 47 48 50 49 48 49 48 42 41 44 43 39 39 38 37 38 37 35 34 35 34 33 31 30 30 30 32 31 30 32 34 35 38 39 38 38 38 39 42 43 43 44 44 44 45 45 45 44 43 44 46 47 46 46 47 48 48 48 47 48 50 48 43 39 39 40 41 42 43
50 48 46 43 43 44 44 44 46 45 44 47 49 48 49 50 50 48 46 45 48 50 49 48 48 47 43 42 45 43 38 38 37 35 36 37 35 34 34 33 32 30 29 28 29 29 28 29 31 33 34 36 36 36 37 37 40 41 40 41 42 42 42 43 42 42 41 41 43 44 44 44 44 45 47 46 46 47 47 48 46 42 40 41 41 41 43 42
46 45 42 40 40 41 41 42 43 43 42 45 46 46 46 47 48 46 44 45 49 50 47 46 48 47 44 43 44 42 38 37 36 34 37 37 34 34 34 32 31 30 29 28 28 27 27 28 30 32 33 35 35 35 36 38 40 39 39 40 41 41 41 42 42 40 40 41 42 41 41 42 43 44 45 46 47 47 46 45 43 39 39 41 41 41 42 41
43 41 39 38 38 38 38 39 40 39 40 41 42 43 43 45 45 42 43 46 49 49 46 46 49 47 44 43 43 41 39 37 34 34 37 36 33 34 33 32 31 30 28 28 27 26 26 27 30 32 33 34 34 35 37 39 39 38 39 40 40 40 41 42 41 40 39 39 39 39 40 41 42 43 44 45 45 44 43 42 39 37 39 40 40 41 40 37
40 38 37 36 36 36 37 37 37 37 37 38 39 40 41 42 41 40 44 47 48 48 45 45 48 47 44 43 42 41 40 37 34 34 37 35 33 33 32 32 31 30 29 28 26 24 24 27 29 30 30 30 31 34 37 39 39 39 40 40 41 41 40 39 39 37 36 36 38 39 41 41 41 42 42 42 41 40 39 38 36 36 37 36 36 38 36 33
39 37 36 35 34 34 35 37 36 35 35 36 36 37 38 38 38 41 45 47 48 48 45 46 48 46 44 42 41 41 40 38 35 35 36 35 33 33 33 32 31 31 30 28 26 23 24 26 27 27 28 29 31 35 37 39 39 39 40 42 41 40 38 38 37 36 36 36 38 40 39 38 39 39 38 38 38 37 36 35 34 33 32 31 32 33 32 32
38 37 35 34 33 33 34 35 36 35 34 34 35 35 35 36 39 43 45 47 49 48 46 47 47 45 43 41 41 41 40 38 36 35 36 35 34 33 33 32 32 32 30 28 26 25 24 25 26 27 28 29 33 35 37 38 38 39 41 41 40 39 38 38 38 38 37 37 39 39 37 35 35 35 34 35 36 35 34 33 31 30 29 28 29 29 30 31
38 37 35 34 34 34 34 35 35 35 34 34 34 34 34 37 41 44 45 47 49 48 48 47 45 44 43 41 41 40 40 39 37 37 36 35 34 33 33 33 32 32 30 28 27 26 25 26 27 27 28 30 33 35 36 37 37 38 39 38 38 38 38 38 39 38 38 38 38 36 34 32 30 29 29 33 34 33 32 30 28 27 27 26 26 28 30 31
38 37 36 36 35 35 35 35 35 35 35 34 34 34 36 39 42 44 45 47 49 49 48 47 44 44 43 42 41 41 41 40 39 37 35 34 35 34 34 34 33 33 31 29 29 27 26 26 27 27 27 29 32 34 35 36 37 38 39 38 38 39 39 39 39 39 38 38 37 36 34 33 32 30 30 33 33 31 29 27 25 26 26 26 28 31 32 32
39 38 37 38 38 37 36 37 36 35 35 34 34 36 39 41 43 44 46 47 49 49 48 46 44 44 43 42 41 42 43 41 40 38 35 34 35 35 35 34 34 34 32 31 30 29 27 26 26 26 27 29 32 33 34 36 37 38 39 39 39 40 40 40 40 40 38 37 37 37 35 35 35 34 34 34 30 28 29 27 25 25 26 29 30 32 33 33
40 39 39 39 40 39 38 38 38 37 36 35 36 38 40 42 43 45 46 47 49 49 47 46 45 44 43 42 42 43 44 42 40 39 37 35 35 35 35 35 34 33 33 32 31 29 28 27 26 26 27 28 31 32 33 35 36 37 38 38 39 39 39 39 39 38 37 37 38 37 36 36 35 33 34 33 30 29 30 30 28 27 27 30 32 33 33 32
40 41 40 40 41 41 41 40 40 39 38 38 38 39 40 42 44 46 47 48 49 49 48 47 46 44 44 44 45 45 45 43 41 40 38 35 35 36 36 36 34 33 33 33 31 29 29 28 28 27 28 29 30 31 33 35 36 38 38 38 39 39 38 38 38 37 37 38 38 38 38 37 35 34 33 32 31 32 32 32 31 30 30 31 32 33 31 29
40 41 41 41 42 43 43 42 42 41 41 41 41 41 42 43 44 46 47 48 49 48 48 48 46 44 45 47 47 46 45 44 42 41 39 36 36 36 37 37 35 33 33 32 31 30 30 30 29 28 28 30 30 30 32 35 37 38 38 38 39 39 39 38 38 38 39 39 38 39 40 38 35 34 33 32 33 33 32 31 31 30 30 31 32 33 32 29
41 42 43 43 43 44 44 44 44 43 43 43 43 44 44 44 45 47 48 49 49 49 50 49 45 45 47 47 46 45 45 44 43 41 39 37 37 38 39 38 36 34 33 32 33 32 30 29 29 28 29 30 30 31 33 35 37 39 40 39 40 41 41 41 40 39 39 39 39 39 40 39 34 30 28 28 31 34 32 30 30 28 29 31 32 32 31 31
42 43 44 44 44 45 45 45 45 45 45 46 45 45 46 46 47 49 50 50 50 51 50 46 43 44 46 47 47 47 46 45 42 39 38 39 40 40 40 39 37 35 34 36 35 31 27 28 29 29 30 31 31 33 34 34 35 37 39 40 42 43 43 44 42 41 39 40 40 39 40 39 33 30 31 30 31 35 35 32 31 30 30 33 33 32 32 33
42 43 44 44 44 45 45 45 45 44 45 45 45 46 47 48 49 51 53 53 54 53 48 43 42 44 47 48 50 49 46 44 42 40 39 40 39 39 40 39 37 37 37 38 36 31 28 28 30 30 31 32 33 34 34 33 32 34 36 39 42 44 43 44 43 43 42 42 42 42 42 40 33 32 38 39 36 36 36 35 35 33 33 33 31 31 33 35
42 43 44 44 44 44 45 45 45 44 44 45 46 47 48 48 49 52 54 55 54 51 46 45 46 48 52 53 53 51 47 46 46 45 43 42 39 39 40 39 39 40 40 39 37 34 32 31 31 32 31 32 34 35 34 35 35 36 36 37 40 40 40 42 42 42 42 42 44 44 44 42 36 31 35 39 39 38 37 37 37 34 33 31 30 31 34 37
41 42 44 45 44 44 44 45 45 44 44 44 46 47 48 48 48 51 53 53 52 49 48 49 51 53 56 56 54 51 48 48 48 47 45 43 41 42 41 40 41 42 40 39 38 36 34 35 35 34 33 34 35 35 36 36 37 38 38 37 38 38 39 41 42 41 41 42 44 44 44 43 38 32 31 37 40 40 38 37 37 34 32 33 33 33 35 39
42 42 42 43 42 41 40 40 40 41 41 41 42 44 45 46 48 50 53 53 52 51 51 53 54 56 58 58 55 52 49 49 50 49 46 44 43 44 44 43 43 42 41 41 39 36 37 38 37 36 36 37 37 36 37 38 38 39 40 39 39 40 41 42 42 41 41 42 43 44 44 43 41 38 38 40 41 40 38 36 36 35 35 36 36 34 35 39
40 40 39 38 37 36 35 36 36 36 37 37 39 40 40 41 44 47 50 52 52 52 53 53 55 57 59 59 56 53 51 52 52 50 46 43 43 45 46 45 45 43 42 41 40 40 40 40 40 40 40 39 38 38 39 40 40 40 41 40 40 41 43 43 42 42 42 42 42 43 42 42 43 43 43 43 42 40 39 37 36 36 37 39 38 35 33 38
36 35 35 34 33 32 31 32 32 32 33 34 35 36 36 38 40 43 47 49 50 51 52 54 55 57 58 58 55 53 53 54 53 50 45 42 42 44 46 46 45 45 44 43 44 44 44 43 44 43 42 40 39 41 41 42 43 42 41 41 40 41 43 43 43 43 43 43 44 43 42 42 42 42 43 44 42 40 40 39 36 37 40 42 42 39 36 39
32 31 32 32 32 31 29 28 29 29 29 30 31 32 34 36 38 40 44 45 46 47 48 51 54 56 58 56 52 51 52 53 52 50 47 44 44 46 47 47 46 46 47 46 47 48 47 47 47 45 43 43 42 42 41 43 45 45 44 44 42 42 44 44 44 43 43 44 45 43 43 43 43 43 45 46 44 42 43 42 39 40 44 43 42 42 43 43
30 29 29 29 30 29 27 25 25 25 25 26 28 29 31 33 35 38 41 42 41 42 45 48 50 53 55 54 52 52 53 52 52 51 49 48 48 48 49 48 47 48 48 48 49 50 50 50 48 46 46 46 44 42 42 45 47 48 48 49 47 46 47 46 44 43 42 44 44 43 44 44 45 45 46 48 46 44 45 46 44 46 49 48 46 47 49 48
28 28 27 26 26 26 25 23 21 21 21 22 24 26 28 30 32 34 37 37 36 39 43 45 46 47 49 51 53 55 55 55 56 55 53 50 49 50 51 50 50 50 51 51 51 52 53 53 51 50 50 49 47 44 43 44 46 48 51 52 51 50 50 50 49 46 45 44 41 40 41 41 42 43 46 47 47 46 46 46 47 49 52 53 52 53 54 51
26 26 25 24 24 23 23 21 20 18 18 19 20 22 24 27 29 31 32 32 34 38 41 42 42 43 45 49 53 56 58 60 60 58 56 53 51 51 51 51 52 53 54 56 57 58 59 59 55 53 53 52 50 48 46 46 47 48 50 53 53 52 53 54 53 51 50 46 38 33 33 34 36 39 43 46 47 46 47 47 47 50 52 53 53 53 54 55
Wind_Direction
262 262 263 264 265 266 267 268 269 270 271 271 270 270 269 267 266 265 264 263 262 262 262 261 261 260 260 259 259 258 258 257 257 256 256 255 255 255 255 254 254 254 254 254 254 254 255 255 255 255 255 255 254 254 254 254 253 253 253 253 253 253 253 253 253 252 252 253 253 254 255 255 254 254 255 257 258 258 259 260 260 260 260 261 262 263 264 265
262 263 264 265 265 266 267 268 269 269 269 269 269 268 268 267 266 265 264 263 262 262 261 261 260 259 259 258 258 258 257 257 257 257 256 256 256 255 255 255 254 254 254 254 254 255 255 255 255 255 255 255 254 254 254 254 254 253 253 253 253 253 252 253 253 253 254 254 254 254 255 256 255 254 254 256 258 259 260 260 261 261 261 262 262 263 263 264
263 264 264 265 265 266 267 268 268 267 267 267 267 268 268 267 266 264 263 262 262 261 261 260 260 259 259 258 258 258 258 258 258 258 257 257 257 256 256 256 255 255 255 255 255 255 255 255 255 255 255 254 254 254 254 254 254 253 253 253 252 252 252 252 253 253 254 255 256 255 255 256 256 256 254 255 258 259 260 260 261 261 262 262 263 263 264 265
263 264 264 265 265 266 267 266 266 265 265 265 266 267 267 267 266 265 263 263 262 261 261 260 260 260 260 260 259 259 259 259 260 259 258 258 258 258 257 257 257 257 256 256 256 256 256 256 255 255 255 255 254 254 254 254 253 253 252 252 252 252 252 253 253 254 255 256 257 257 256 256 257 257 256 256 257 258 259 260 261 261 262 263 263 263 264 265
263 263 264 265 265 265 265 264 263 263 263 264 265 266 266 266 266 265 264 263 263 262 262 261 261 261 261 261 261 260 260 260 261 260 260 259 259 259 259 258 258 258 258 257 257 257 257 256 256 256 255 255 254 254 254 253 253 252 252 252 252 252 253 253 254 255 256 257 257 257 256 255 255 255 256 256 257 258 258 260 261 261 262 262 263 264 265 266
263 264 264 264 264 264 263 263 262 262 263 263 264 265 264 265 265 265 264 263 263 263 262 262 262 262 262 262 261 261 261 261 262 262 261 260 260 260 260 260 259 259 259 258 258 258 257 257 257 256 255 255 255 254 254 253 253 252 252 251 252 252 253 253 254 255 255 255 256 256 255 254 253 255 256 257 257 258 259 260 261 261 261 262 263 265 266 266
263 263 263 263 262 262 262 262 263 263 263 264 264 264 264 264 264 264 264 263 263 263 263 263 263 263 263 262 263 262 262 263 263 263 263 262 262 261 261 261 260 260 259 259 259 258 258 257 257 256 255 255 255 254 254 254 253 252 252 251 252 252 253 253 254 254 255 254 254 255 254 254 255 256 256 256 257 259 259 260 261 261 261 263 264 265 265 265
261 262 262 261 261 261 261 262 263 263 263 263 263 263 263 264 264 263 263 263 263 263 264 264 264 264 264 264 264 264 264 264 264 264 264 263 263 262 262 261 261 260 260 259 258 258 258 257 256 256 255 255 254 254 254 254 253 253 252 252 252 252 253 253 254 254 253 253 254 254 254 255 255 255 255 256 257 258 258 258 260 261 262 263 264 264 264 264
260 260 260 260 261 261 261 262 262 262 262 263 263 263 263 263 264 264 264 264 264 264 264 264 264 265 265 265 265 265 265 264 264 265 264 264 264 263 262 261 261 260 259 259 258 258 257 257 256 256 255 255 254 254 254 254 254 253 252 252 252 252 252 253 253 253 253 253 254 255 254 254 254 254 255 256 257 257 257 257 259 261 262 263 263 263 263 264
259 259 260 260 261 261 261 262 262 262 263 263 263 263 263 264 264 264 264 264 264 264 264 264 265 265 265 265 265 265 265 265 265 264 264 264 264 263 262 262 261 260 260 259 258 258 258 257 257 256 256 255 255 254 254 254 253 252 252 252 252 252 252 252 253 253 253 252 252 254 254 253 254 254 255 255 255 256 257 257 258 260 261 262 262 263 263 264
259 260 260 261 261 261 262 262 262 263 263 263 263 263 263 263 263 264 264 264 264 264 265 265 265 265 266 266 265 265 265 265 265 265 265 264 264 264 263 262 262 261 260 259 259 258 258 257 257 256 256 255 255 254 254 253 253 252 252 252 252 252 252 252 252 252 252 250 251 252 253 253 254 255 255 255 254 255 256 257 258 259 260 261 262 262 263 264
260 260 261 261 261 262 262 262 263 263 263 263 263 263 263 263 263 264 264 264 264 265 265 265 265 265 266 266 266 266 266 265 265 266 266 265 264 264 264 263 262 261 261 260 259 258 258 257 257 256 255 255 254 254 254 253 253 252 252 252 252 252 252 252 252 251 251 250 250 251 253 253 254 255 255 255 254 254 255 257 257 258 259 260 260 261 262 263
260 261 261 261 261 262 262 262 262 263 263 263 263 263 263 263 263 263 264 264 264 264 265 265 266 266 266 266 267 267 267 267 267 267 267 266 265 265 264 263 262 262 261 260 260 259 258 257 256 255 255 255 254 254 253 252 252 252 251 252 252 252 252 252 251 251 251 250 250 251 253 253 254 255 255 255 255 254 255 256 256 257 259 259 260 260 261 261
261 261 261 261 262 262 262 262 262 262 262 262 262 262 262 263 263 263 263 264 264 265 265 266 266 267 267 268 268 268 269 269 269 268 267 267 266 265 264 264 263 262 261 260 259 258 257 256 256 255 255 254 254 253 253 253 252 252 252 252 251 251 251 251 250 250 249 250 250 250 252 253 253 254 255 255 255 255 255 255 255 255 257 259 260 260 259 260
262 262 262 263 263 263 262 262 262 262 262 262 262 262 262 262 262 262 263 263 264 265 265 266 267 267 268 269 269 270 270 270 270 269 268 267 267 266 265 263 262 261 259 258 258 257 257 256 255 255 255 254 254 254 253 253 252 252 251 251 250 249 249 249 249 249 248 249 250 249 250 252 252 253 253 254 255 255 255 255 255 254 256 257 258 259 258 259
263 263 264 264 264 264 264 263 263 263 263 262 262 261 261 261 261 262 262 263 264 265 265 266 267 268 269 270 270 271 272 271 270 269 268 267 266 265 264 262 261 260 259 258 257 257 257 256 255 255 255 254 254 253 253 252 252 251 251 250 249 248 248 248 248 248 247 247 248 248 248 250 252 252 252 254 255 255 255 255 255 254 254 255 255 257 258 258
264 264 265 265 265 265 265 264 264 263 263 262 262 261 261 261 261 261 262 262 263 264 265 266 267 268 269 270 271 272 272 271 270 268 268 267 266 265 263 262 260 260 259 258 257 256 256 256 256 255 255 254 254 253 252 252 250 249 248 247 246 245 245 246 247 246 246 246 247 246 247 248 251 251 251 253 254 253 255 256 255 253 253 253 254 255 257 258
265 265 265 266 266 266 266 265 265 264 263 262 262 261 261 260 260 260 261 262 263 264 265 266 267 268 269 270 271 272 271 271 269 269 269 267 265 263 262 261 260 259 259 258 257 257 257 257 256 256 255 254 252 251 250 248 247 246 246 245 245 245 245 246 246 246 245 246 246 245 246 247 248 249 250 252 252 253 254 256 254 252 252 252 253 254 256 256
266 267 267 268 268 268 267 266 265 264 263 262 261 261 260 260 260 260 260 261 262 263 265 265 266 267 268 269 270 271 271 270 269 269 268 266 264 263 262 261 260 259 259 258 258 257 258 258 257 256 254 251 250 248 247 246 246 246 246 247 247 246 246 246 247 246 244 245 246 245 243 246 247 248 249 250 252 252 251 253 254 252 252 252 252 252 254 255
269 269 270 270 270 269 268 267 265 264 263 262 261 260 259 259 259 259 260 260 261 263 263 264 265 266 266 268 269 269 270 270 269 269 267 265 263 262 261 260 259 259 258 259 259 259 258 258 256 253 251 250 249 248 246 246 247 247 248 248 248 247 247 246 246 245 243 243 245 244 241 244 247 247 247 249 250 250 249 251 254 253 253 252 251 252 253 255
271 271 272 272 272 271 269 268 266 264 263 262 260 260 259 258 257 258 258 260 260 261 262 262 264 265 265 266 268 268 269 269 269 267 266 265 262 261 260 259 259 259 259 260 260 259 257 255 253 251 250 249 249 247 246 246 246 246 246 246 245 244 243 242 243 244 242 240 242 243 240 241 246 246 245 246 247 248 249 250 252 251 251 251 251 252 253 254
273 273 273 273 273 272 270 269 267 265 263 262 260 259 258 257 256 256 256 258 260 259 260 261 262 264 265 265 267 268 268 269 268 266 265 264 262 260 260 259 259 259 260 260 259 257 254 252 251 251 251 250 249 247 245 245 245 244 243 242 241 240 239 239 241 242 240 237 237 240 241 240 243 244 244 244 245 247 248 249 249 247 247 249 250 252 254 255
275 275 275 275 274 272 271 269 267 265 263 261 260 259 258 256 255 254 254 256 259 258 258 260 261 263 264 264 265 266 267 268 267 264 264 263 262 261 261 259 259 260 260 259 258 256 253 252 253 252 251 249 247 246 245 244 242 240 239 239 239 239 239 239 240 241 240 238 236 238 240 239 240 241 243 243 244 245 247 248 247 245 244 247 250 252 255 255
277 277 277 276 275 274 272 269 267 265 263 261 260 259 257 255 253 253 252 253 257 258 257 260 261 261 263 264 265 264 265 266 265 263 263 263 262 261 260 259 260 260 260 258 257 255 254 253 253 251 249 247 245 244 242 240 239 238 238 239 240 239 240 240 241 243 242 240 238 237 237 239 240 240 242 244 243 243 245 246 246 245 244 245 249 252 254 253
279 278 277 276 275 273 272 269 266 264 262 260 259 257 256 254 252 251 251 251 255 257 256 258 260 260 261 263 263 263 264 264 263 263 263 262 261 260 260 260 260 260 259 258 256 256 255 253 251 248 246 244 242 240 239 237 237 238 238 238 239 238 239 240 242 244 245 241 238 236 236 238 241 242 241 242 242 242 244 246 246 246 246 246 247 250 252 253
280 278 276 275 274 272 270 268 266 263 261 259 258 256 255 253 251 250 250 250 253 257 256 257 259 259 259 260 261 262 262 263 262 262 262 261 260 260 261 260 260 259 259 258 257 256 254 251 248 246 244 242 239 238 237 236 236 236 236 236 237 237 237 239 240 242 243 240 237 237 236 237 241 242 241 240 242 242 244 247 247 246 246 246 245 245 249 252
279 277 276 276 274 271 268 267 265 262 260 258 257 256 254 253 251 249 249 248 251 255 256 256 257 258 257 257 258 258 260 263 261 259 261 261 260 260 260 259 259 259 258 257 256 254 251 248 246 244 241 238 237 237 236 235 235 235 234 235 237 237 237 239 240 241 241 239 238 238 237 238 240 242 241 240 241 241 243 246 248 246 245 245 244 244 246 250
277 277 277 276 274 271 268 266 264 261 258 257 256 255 253 251 250 249 248 248 250 253 254 255 256 257 255 253 254 255 257 261 259 257 260 261 259 258 258 258 259 259 258 257 255 253 250 247 245 242 239 238 237 236 235 234 234 234 234 236 238 239 239 240 240 240 240 239 238 238 238 237 238 241 242 242 242 242 243 246 248 247 246 245 245 245 246 249
276 277 278 277 274 271 268 265 264 261 258 256 256 254 252 250 249 248 247 247 248 250 252 254 256 255 252 250 251 252 254 258 259 257 259 259 258 257 257 257 259 259 258 256 254 253 249 245 243 241 239 238 237 235 234 233 233 234 234 235 237 238 239 239 239 239 240 239 238 239 239 238 237 239 241 242 242 242 243 245 247 247 247 246 246 247 247 248
276 278 278 278 275 272 268 265 263 262 259 256 255 254 251 249 248 247 247 246 247 248 249 252 253 252 250 249 251 251 253 257 258 257 258 257 256 256 256 257 258 257 256 255 253 250 246 242 241 240 237 235 234 232 232 231 232 233 233 233 235 235 237 237 236 235 236 237 237 238 238 238 238 238 240 241 242 243 244 245 246 247 248 246 245 246 247 248
277 278 278 278 276 272 268 265 263 261 259 257 255 253 250 248 247 247 246 246 247 247 247 248 250 251 250 250 251 251 251 254 256 256 257 255 254 255 255 255 256 255 255 254 252 249 245 242 240 239 237 235 233 230 229 230 230 230 230 231 233 234 235 237 237 236 236 237 238 237 236 237 238 238 239 241 242 244 246 247 246 246 247 246 245 245 246 247
277 278 278 277 276 273 269 265 262 260 259 257 255 252 249 248 247 245 245 245 245 246 245 246 249 250 249 249 251 251 250 252 253 254 255 254 253 253 252 253 254 254 253 251 250 248 245 243 241 240 239 237 234 231 229 229 229 228 228 229 231 232 234 237 238 238 238 238 238 237 235 236 238 239 240 242 244 245 246 246 244 244 245 246 246 246 246 244
276 277 277 276 275 273 270 266 263 260 258 257 255 252 249 247 246 243 243 245 245 244 243 244 246 248 248 248 250 250 250 250 251 253 254 253 251 250 250 250 252 252 250 249 248 245 242 241 241 240 238 234 230 228 228 228 228 228 228 229 230 232 233 235 237 236 235 235 236 237 237 236 238 240 241 243 244 243 243 243 241 240 242 243 243 244 242 238
274 276 276 275 274 272 269 267 264 261 259 256 254 252 249 246 244 243 242 244 245 244 243 243 245 247 248 248 249 249 249 249 250 252 252 251 249 248 248 248 249 250 250 248 247 243 240 238 237 235 232 230 228 227 227 228 228 228 229 230 231 231 232 233 234 234 233 234 236 238 238 238 240 242 243 242 241 241 241 240 239 238 238 237 237 236 234 233
273 275 275 275 274 271 268 266 264 262 259 256 253 251 249 245 243 242 242 244 245 245 245 244 245 246 247 247 248 248 248 247 248 250 251 250 249 248 247 247 248 250 250 248 247 243 239 237 235 233 230 228 228 228 228 228 228 228 230 231 231 231 232 233 233 234 234 235 236 238 238 238 238 240 242 241 239 238 240 240 239 236 233 231 228 225 225 227
273 274 274 274 272 271 269 266 264 262 259 256 253 250 247 244 243 242 242 244 245 246 246 245 245 246 246 246 247 247 247 246 246 249 250 250 249 247 247 246 247 248 248 247 246 243 239 237 236 234 231 230 229 228 227 227 227 228 229 228 228 229 229 230 231 232 232 234 236 236 235 233 230 229 232 237 237 236 237 237 234 229 225 222 220 220 221 222
273 273 273 273 272 270 269 268 265 263 260 257 253 249 247 245 244 243 243 243 245 246 246 247 246 246 247 247 247 247 246 245 246 247 248 247 247 247 247 246 245 246 247 246 245 244 242 239 237 234 231 230 230 228 226 226 227 227 228 228 228 229 230 231 231 232 232 233 235 235 234 233 231 230 231 236 237 235 234 230 223 219 218 220 222 224 225 225
273 273 273 272 272 271 269 267 266 263 261 257 253 250 248 247 246 246 245 245 246 247 247 247 247 247 248 248 247 247 246 244 244 245 245 245 245 245 246 245 246 247 248 247 246 246 245 241 237 234 231 230 230 228 227 227 227 227 228 227 228 229 230 231 233 234 233 232 233 233 233 233 232 232 234 237 236 233 231 225 220 219 220 223 226 228 229 229
272 273 273 272 272 271 269 267 265 263 261 257 254 252 250 248 248 247 246 246 246 246 247 247 247 246 247 246 245 245 245 243 243 243 244 244 244 244 245 245 244 245 246 246 246 245 244 242 238 233 230 228 229 227 226 226 226 226 226 226 227 228 229 230 231 233 233 233 233 233 232 232 231 231 233 235 234 233 233 228 224 223 222 224 227 229 230 229
273 273 272 271 270 270 269 268 266 264 261 258 256 253 251 249 249 248 248 247 247 247 246 246 246 245 246 246 246 245 245 244 242 242 243 243 241 242 244 244 243 242 243 244 244 242 241 241 240 237 232 229 228 227 226 226 225 226 225 225 226 227 227 228 228 229 231 232 233 235 233 231 231 233 235 237 238 236 235 233 229 226 222 222 225 229 229 227
273 273 272 272 271 270 270 269 267 265 263 260 257 255 253 251 250 250 249 248 248 247 246 245 244 243 244 246 247 247 246 245 243 242 243 243 241 240 241 242 241 240 241 241 240 239 239 241 241 239 236 233 228 227 228 227 226 226 225 224 225 226 226 227 227 228 230 231 232 234 235 231 228 231 235 237 240 237 233 230 228 224 220 216 218 223 226 227
274 274 274 274 273 272 271 269 268 266 264 261 259 256 254 252 250 250 249 249 248 246 246 245 244 244 244 244 244 243 242 242 242 242 243 243 241 240 241 242 242 240 240 240 239 238 238 242 242 238 236 235 231 228 230 230 231 232 230 227 226 226 226 226 227 226 227 229 230 231 234 231 224 225 228 225 230 235 232 228 224 219 216 214 216 220 224 227
276 276 276 276 275 274 272 271 269 266 263 262 259 256 254 251 249 249 248 248 247 247 247 247 246 246 246 245 244 243 241 241 239 238 239 241 242 243 243 243 243 241 239 241 241 237 231 235 239 237 234 234 233 231 231 231 232 234 234 233 232 231 229 229 228 228 228 230 230 231 233 231 220 222 230 228 228 235 235 232 228 220 216 216 217 221 222 221
278 279 278 277 276 275 274 272 270 267 264 261 259 256 253 251 249 248 248 247 247 248 247 246 244 243 243 243 242 242 241 240 239 236 234 234 236 239 242 242 241 241 241 243 243 238 231 229 233 237 237 236 235 233 232 231 230 231 233 235 238 238 238 237 234 232 233 234 235 236 236 235 225 222 235 236 232 234 235 234 231 224 217 211 209 213 217 215
281 281 280 280 278 277 275 273 271 269 265 261 259 256 254 252 249 248 248 248 248 247 244 242 240 240 241 242 242 242 241 240 240 239 237 236 233 233 235 237 239 241 242 243 243 241 236 231 231 235 238 238 237 234 233 233 232 233 234 234 237 240 241 242 240 236 234 234 237 239 240 239 231 222 230 236 233 231 231 231 232 227 218 209 206 212 215 214
283 283 282 281 280 279 276 274 271 269 266 263 259 256 254 252 249 247 247 246 245 243 240 239 238 238 240 241 241 242 242 242 242 240 238 237 235 234 233 232 235 238 239 241 242 241 238 236 234 234 234 235 236 234 234 234 233 233 235 234 234 236 238 240 241 240 238 236 237 240 242 243 238 228 227 233 233 232 230 228 229 228 222 215 213 219 219 216
286 286 285 283 282 280 277 275 272 268 266 263 260 257 254 251 248 247 246 245 244 241 239 238 237 237 238 239 238 237 237 238 240 240 239 237 236 236 236 235 234 235 237 239 240 238 235 236 236 234 232 232 234 234 233 235 235 234 235 235 235 236 237 238 239 240 242 240 238 239 240 243 244 239 236 236 234 231 229 227 224 224 226 223 218 219 219 218
289 290 290 289 287 284 281 278 274 271 266 262 259 256 254 250 247 245 244 244 243 241 239 237 237 237 238 239 238 236 234 234 236 236 236 237 238 237 237 237 236 235 235 235 236 236 234 234 235 235 234 232 233 234 233 234 236 236 236 237 237 238 239 239 238 237 238 240 240 238 237 238 240 241 241 239 235 230 227 224 220 219 222 222 219 216 216 217
292 294 295 295 293 290 286 282 277 273 269 264 260 255 252 249 245 244 244 244 243 242 240 237 236 236 237 238 237 237 237 236 237 236 232 230 231 233 234 234 233 233 233 232 233 235 235 235 236 237 237 235 233 235 235 234 235 235 235 235 236 238 240 241 240 238 237 238 240 239 238 236 235 235 238 239 238 233 226 221 219 219 219 217 216 216 216 217
297 298 298 297 296 294 291 286 280 275 270 266 262 257 252 249 245 243 243 243 241 240 240 238 236 236 237 237 236 235 235 235 236 237 234 230 227 227 229 230 230 230 231 230 231 234 236 237 238 238 238 237 235 235 235 234 234 233 233 234 235 236 240 242 242 241 239 238 239 240 240 240 238 236 238 239 238 235 230 224 221 221 220 217 215 216 218 218
301 302 302 301 301 299 297 293 287 280 274 267 262 258 254 250 247 244 243 243 241 238 238 238 236 235 235 235 233 231 231 231 231 231 231 229 228 227 226 226 226 226 227 228 228 229 232 235 235 235 237 238 236 234 232 233 235 234 234 235 236 237 238 242 243 243 242 240 241 243 245 246 245 242 240 240 239 235 232 227 223 220 221 222 221 221 222 223
306 307 308 308 307 305 303 299 294 287 280 272 264 258 253 250 248 246 243 240 236 235 236 237 236 235 233 232 231 229 227 228 228 229 228 226 225 226 226 225 224 224 224 225 226 226 228 232 232 231 233 236 235 232 231 233 235 236 235 236 237 237 237 239 241 243 243 241 237 237 240 241 241 241 240 239 238 236 232 228 225 220 219 224 226 226 226 228